Richmond International Airport Airport (RIC)

 

Airport Diagram
Current Weather/Forecast (IFR Conditions)
METAR KRIC 220654Z 17010KT 10SM OVC005 14/13 A3006 RMK AO2 SLP184 T01390128
TAF KRIC 220545Z 2206/2306 15005KT P6SM OVC007 FM221500 16006KT P6SM VCSH OVC010 FM222000 15009KT P6SM -SHRA OVC007 FM230000 25006KT P6SM SCT004 BKN007 FM230200 29005KT P6SM OVC020 FM230500 30005KT P6SM BKN150

All Charts
General
Chart Name Download
AIRPORT DIAGRAM
TAKEOFF MINIMUMS
ALTERNATE MINIMUMS
HOT SPOT

Departures
Chart Name Download
COLIN EIGHT
KALLI FIVE (RNAV)
KALLI FIVE (RNAV), CONT.1
LUCYL FIVE (RNAV)
LUCYL FIVE (RNAV), CONT.1
READE SIX
READE SIX, CONT.1

Arrivals
Chart Name Download
DUCXS FOUR (RNAV)
POWTN FOUR (RNAV)
SPIDR THREE (RNAV)

Approaches
Chart Name Download
ILS OR LOC RWY 02
ILS OR LOC RWY 16
ILS OR LOC RWY 34
ILS RWY 34 (SA CAT I)
ILS RWY 34 (CAT II - III)
RNAV (RNP) Y RWY 02
RNAV (RNP) Y RWY 16
RNAV (RNP) Y RWY 20
RNAV (RNP) Y RWY 34
RNAV (GPS) RWY 07
RNAV (GPS) RWY 25
RNAV (GPS) Z RWY 02
RNAV (GPS) Z RWY 16
RNAV (GPS) Z RWY 20
RNAV (GPS) Z RWY 34
VOR RWY 02
VOR RWY 16
VOR RWY 20
VOR RWY 25
VOR RWY 34


Inbound Traffic (Arrivals)

No inbound traffic.


Outbound Traffic (Departures)

No outbound traffic.